This is the latest recevied weather packets stored in our database for station/object WB4ZUT. If no packets are shown the sender has not sent any weather packets the latest 10 day(s).
| Time | Temp. | Humidity | Pressure | Rain* | Wind** | Luminosity | Snow |
|---|---|---|---|---|---|---|---|
| 1778245758 | 15° C | 66% | 1015.4 hPa | 0 mm | - | 70 W/m² | - |
| 1778245454 | 14.44° C | 66% | 1015.4 hPa | 0 mm | - | 219 W/m² | - |
| 1778245150 | 13.89° C | 67% | 1015.4 hPa | 0 mm | - | 201 W/m² | - |
| 1778244846 | 13.89° C | 68% | 1015.2 hPa | 0 mm | - | 186 W/m² | - |
| 1778244545 | 13.33° C | 69% | 1015.4 hPa | 0 mm | - | 154 W/m² | - |
| 1778244242 | 12.78° C | 71% | 1015.5 hPa | 0 mm | - | 150 W/m² | - |
| 1778243940 | 12.78° C | 71% | 1015.3 hPa | 0 mm | - | 137 W/m² | - |
| 1778243638 | 12.22° C | 72% | 1015.3 hPa | 0 mm | - | 134 W/m² | - |
| 1778243333 | 12.22° C | 71% | 1015.4 hPa | 0 mm | - | 86 W/m² | - |
| 1778243031 | 11.67° C | 73% | 1015.1 hPa | 0 mm | - | 80 W/m² | - |
| 1778242728 | 11.11° C | 73% | 1015.2 hPa | 0 mm | - | 65 W/m² | - |
| 1778242426 | 11.11° C | 74% | 1015.1 hPa | 0 mm | - | 58 W/m² | - |
| 1778242123 | 11.11° C | 75% | 1015.2 hPa | 0 mm | - | 53 W/m² | - |
| 1778241821 | 10° C | 80% | 1015.3 hPa | 0 mm | - | 47 W/m² | - |
| 1778241518 | 9.44° C | 81% | 1015.4 hPa | 0 mm | - | 42 W/m² | - |
| 1778241216 | 8.89° C | 81% | 1015.2 hPa | 0 mm | - | 33 W/m² | - |
| 1778240912 | 8.89° C | 83% | 1015.3 hPa | 0 mm | - | 29 W/m² | - |
| 1778240610 | 8.33° C | 84% | 1015.3 hPa | 0 mm | - | 28 W/m² | - |
| 1778240306 | 7.78° C | 85% | 1015.1 hPa | 0 mm | - | 26 W/m² | - |
| 1778240004 | 7.78° C | 85% | 1015.2 hPa | 0 mm | - | 23 W/m² | - |
| 1778239700 | 7.78° C | 85% | 1015.2 hPa | 0 mm | - | 21 W/m² | - |
| 1778239398 | 7.78° C | 86% | 1014.9 hPa | 0 mm | - | 18 W/m² | - |
| 1778239094 | 7.78° C | 87% | 1014.9 hPa | 0 mm | - | 15 W/m² | - |
| 1778238791 | 7.22° C | 88% | 1014.9 hPa | 0 mm | - | 13 W/m² | - |
| 1778238489 | 7.22° C | 88% | 1015 hPa | 0 mm | - | 11 W/m² | - |
* Rain latest hour (hover to see other rain measurements)
** Current wind speed in m/s (hover to see current wind gust speed)